TimeCEST,TemperatureF,Dew PointF,Humidity,Sea Level PressureIn,VisibilityMPH,Wind Direction,Wind SpeedMPH,Gust SpeedMPH,PrecipitationIn,Events,Conditions,WindDirDegrees,DateUTC
12:00 AM,64.4,51.8,64,30.06,-9999.0,WNW,5.8,-,N/A,,Clear,300,2012-10-03 22:00:00
12:30 AM,62.6,51.8,68,30.06,-9999.0,WNW,5.8,-,N/A,,Clear,300,2012-10-03 22:30:00
1:00 AM,62.6,53.6,72,30.06,-9999.0,WNW,5.8,-,N/A,,Clear,290,2012-10-03 23:00:00
1:30 AM,62.6,51.8,68,30.06,-9999.0,WNW,6.9,-,N/A,,Clear,290,2012-10-03 23:30:00
2:00 AM,65,53,56,30.06,12,WNW,8.1,,,,,290,2012-10-04 00:00:00
2:00 AM,62.6,53.6,72,30.04,-9999.0,WNW,8.1,-,N/A,,Clear,290,2012-10-04 00:00:00
2:30 AM,60.8,53.6,77,30.04,-9999.0,WNW,6.9,-,N/A,,Clear,290,2012-10-04 00:30:00
3:00 AM,60.8,51.8,72,30.04,-9999.0,WNW,8.1,-,N/A,,Clear,290,2012-10-04 01:00:00
3:30 AM,60.8,51.8,72,30.04,-9999.0,WNW,6.9,-,N/A,,Clear,290,2012-10-04 01:30:00
4:00 AM,60.8,51.8,72,30.04,-9999.0,WNW,9.2,-,N/A,,Clear,290,2012-10-04 02:00:00
4:30 AM,59.0,51.8,77,30.04,-9999.0,WNW,9.2,-,N/A,,Clear,290,2012-10-04 02:30:00
5:00 AM,59.0,53.6,82,30.01,-9999.0,WNW,6.9,-,N/A,,Clear,300,2012-10-04 03:00:00
5:30 AM,57.2,53.6,88,30.01,-9999.0,WNW,6.9,-,N/A,,Clear,300,2012-10-04 03:30:00
6:00 AM,57.2,53.6,88,30.01,-9999.0,WNW,9.2,-,N/A,,Clear,300,2012-10-04 04:00:00
6:30 AM,57.2,53.6,88,30.01,-9999.0,WNW,10.4,-,N/A,,Clear,300,2012-10-04 04:30:00
7:00 AM,57.2,53.6,88,30.01,-9999.0,WNW,8.1,-,N/A,,Clear,300,2012-10-04 05:00:00
7:30 AM,57.2,53.6,88,30.01,-9999.0,WNW,8.1,-,N/A,,Clear,300,2012-10-04 05:30:00
8:00 AM,59,53,75,30.01,12,WNW,8.1,,,,,300,2012-10-04 06:00:00
8:00 AM,57.2,53.6,88,30.01,-9999.0,WNW,8.1,-,N/A,,Clear,300,2012-10-04 06:00:00
8:30 AM,57.2,53.6,88,30.01,-9999.0,WNW,8.1,-,N/A,,Clear,290,2012-10-04 06:30:00
9:00 AM,59.0,51.8,77,30.01,-9999.0,WNW,9.2,-,N/A,,Clear,290,2012-10-04 07:00:00
9:30 AM,60.8,53.6,77,30.01,-9999.0,WNW,8.1,-,N/A,,Clear,290,2012-10-04 07:30:00
10:00 AM,62.6,53.6,72,30.01,-9999.0,WNW,6.9,-,N/A,,Clear,300,2012-10-04 08:00:00
10:30 AM,66.2,53.6,64,30.01,-9999.0,WNW,6.9,-,N/A,,Clear,300,2012-10-04 08:30:00
11:00 AM,69.8,51.8,53,30.01,-9999.0,Variable,2.3,-,N/A,,Clear,0,2012-10-04 09:00:00
11:30 AM,73.4,51.8,47,30.01,-9999.0,Calm,Calm,-,N/A,,Clear,0,2012-10-04 09:30:00
12:00 PM,73.4,55.4,53,30.01,-9999.0,SE,5.8,-,N/A,,Clear,130,2012-10-04 10:00:00
12:30 PM,75.2,51.8,44,30.01,-9999.0,SSE,8.1,-,N/A,,Clear,150,2012-10-04 10:30:00
1:00 PM,75.2,53.6,47,30.01,-9999.0,SSE,9.2,-,N/A,,Clear,160,2012-10-04 11:00:00
1:30 PM,75.2,57.2,53,30.01,-9999.0,SSE,10.4,-,N/A,,Clear,150,2012-10-04 11:30:00
2:00 PM,77,55,36,30.01,25,SE,10.4,,,,Clear,140,2012-10-04 12:00:00
2:00 PM,77.0,51.8,41,30.01,-9999.0,SE,10.4,-,N/A,,Clear,140,2012-10-04 12:00:00
2:30 PM,77.0,53.6,44,29.98,-9999.0,SE,10.4,-,N/A,,Clear,130,2012-10-04 12:30:00
3:00 PM,75.2,57.2,53,29.98,-9999.0,SE,9.2,-,N/A,,Clear,130,2012-10-04 13:00:00
3:30 PM,75.2,59.0,57,29.98,-9999.0,SE,9.2,-,N/A,,Clear,130,2012-10-04 13:30:00
4:00 PM,75.2,57.2,53,29.98,-9999.0,SE,9.2,-,N/A,,Clear,130,2012-10-04 14:00:00
4:30 PM,73.4,59.0,61,29.98,-9999.0,SE,9.2,-,N/A,,Clear,130,2012-10-04 14:30:00
5:00 PM,73.4,60.8,65,29.98,-9999.0,SE,9.2,-,N/A,,Clear,130,2012-10-04 15:00:00
5:30 PM,73.4,60.8,65,29.95,-9999.0,ESE,8.1,-,N/A,,Clear,120,2012-10-04 15:30:00
6:00 PM,73.4,62.6,69,29.95,-9999.0,ESE,6.9,-,N/A,,Clear,120,2012-10-04 16:00:00
6:30 PM,73.4,62.6,69,29.95,-9999.0,SE,6.9,-,N/A,,Clear,140,2012-10-04 16:30:00
7:00 PM,71.6,62.6,73,29.95,-9999.0,SE,8.1,-,N/A,,Clear,140,2012-10-04 17:00:00
7:30 PM,71.6,62.6,73,29.95,-9999.0,SE,8.1,-,N/A,,Clear,140,2012-10-04 17:30:00
8:00 PM,71,63,68,29.97,25,SE,5.8,,,,Clear,130,2012-10-04 18:00:00
8:00 PM,69.8,62.6,78,29.95,-9999.0,SE,5.8,-,N/A,,Clear,130,2012-10-04 18:00:00
8:30 PM,68.0,62.6,83,29.98,-9999.0,ESE,5.8,-,N/A,,Clear,110,2012-10-04 18:30:00
9:00 PM,68.0,64.4,88,29.98,-9999.0,ESE,3.5,-,N/A,,Clear,110,2012-10-04 19:00:00
9:30 PM,68.0,62.6,83,29.98,-9999.0,ESE,3.5,-,N/A,,Clear,110,2012-10-04 19:30:00
10:00 PM,66.2,62.6,88,29.98,-9999.0,ESE,3.5,-,N/A,,Clear,110,2012-10-04 20:00:00
10:30 PM,66.2,62.6,88,30.01,-9999.0,Variable,2.3,-,N/A,,Clear,0,2012-10-04 20:30:00
11:00 PM,66.2,62.6,88,30.01,-9999.0,Calm,Calm,-,N/A,,Clear,0,2012-10-04 21:00:00
11:30 PM,66.2,62.6,88,30.01,6.2,WSW,2.3,-,N/A,,Partly Cloudy,250,2012-10-04 21:30:00